TimeEDT,TemperatureF,Dew PointF,Humidity,Sea Level PressureIn,VisibilityMPH,Wind Direction,Wind SpeedMPH,Gust SpeedMPH,PrecipitationIn,Events,Conditions,WindDirDegrees,DateUTC
12:58 AM,81.0,72.0,74,30.10,10.0,East,10.4,-,N/A,,Overcast,100,2013-08-27 04:58:00
1:58 AM,81.0,71.1,72,30.09,10.0,East,10.4,-,N/A,,Overcast,100,2013-08-27 05:58:00
2:58 AM,81.0,71.1,72,30.08,10.0,East,12.7,-,N/A,,Overcast,80,2013-08-27 06:58:00
3:58 AM,80.1,71.1,74,30.07,10.0,East,9.2,-,N/A,,Scattered Clouds,90,2013-08-27 07:58:00
4:58 AM,79.0,71.1,77,30.06,10.0,East,5.8,-,N/A,,Clear,80,2013-08-27 08:58:00
5:58 AM,78.1,71.1,79,30.07,10.0,Calm,Calm,-,N/A,,Mostly Cloudy,0,2013-08-27 09:58:00
6:58 AM,78.1,71.1,79,30.07,10.0,ENE,4.6,-,N/A,,Overcast,60,2013-08-27 10:58:00
7:31 AM,78.8,71.6,78,30.08,10.0,ENE,5.8,-,N/A,,Overcast,60,2013-08-27 11:31:00
7:58 AM,81.0,73.0,77,30.08,10.0,ENE,9.2,-,N/A,,Mostly Cloudy,60,2013-08-27 11:58:00
8:58 AM,82.0,72.0,71,30.09,10.0,ENE,10.4,-,N/A,,Scattered Clouds,60,2013-08-27 12:58:00
9:58 AM,82.9,71.1,67,30.10,10.0,East,8.1,-,N/A,,Clear,80,2013-08-27 13:58:00
10:58 AM,84.0,71.1,65,30.10,10.0,East,8.1,-,N/A,,Partly Cloudy,80,2013-08-27 14:58:00
11:58 AM,82.9,70.0,65,30.10,10.0,NE,6.9,-,N/A,,Partly Cloudy,50,2013-08-27 15:58:00
12:58 PM,84.0,72.0,67,30.08,10.0,ENE,9.2,-,N/A,,Scattered Clouds,60,2013-08-27 16:58:00
1:58 PM,84.0,70.0,63,30.09,10.0,East,9.2,-,N/A,,Partly Cloudy,80,2013-08-27 17:58:00
2:58 PM,84.0,71.1,65,30.07,10.0,East,9.2,-,N/A,,Mostly Cloudy,80,2013-08-27 18:58:00
3:58 PM,84.0,70.0,63,30.05,10.0,ENE,8.1,-,N/A,,Clear,70,2013-08-27 19:58:00
4:58 PM,84.0,70.0,63,30.04,10.0,East,10.4,-,N/A,,Clear,80,2013-08-27 20:58:00
5:58 PM,82.9,70.0,65,30.05,10.0,NE,10.4,-,N/A,,Clear,50,2013-08-27 21:58:00
6:58 PM,82.0,70.0,67,30.04,10.0,East,8.1,-,N/A,,Partly Cloudy,80,2013-08-27 22:58:00
7:58 PM,80.1,70.0,71,30.04,10.0,ESE,6.9,-,N/A,,Clear,110,2013-08-27 23:58:00
8:58 PM,78.1,70.0,76,30.05,10.0,SE,6.9,-,N/A,,Clear,130,2013-08-28 00:58:00
9:58 PM,78.1,70.0,76,30.06,10.0,SSE,3.5,-,N/A,,Clear,150,2013-08-28 01:58:00
10:58 PM,78.1,70.0,76,30.07,10.0,Calm,Calm,-,N/A,,Clear,0,2013-08-28 02:58:00
11:58 PM,77.0,70.0,79,30.06,10.0,Calm,Calm,-,N/A,,Mostly Cloudy,0,2013-08-28 03:58:00